{"data":{"norad_id":64111,"epoch":"2026-09-19T11:10:36.459264Z","epoch_age_seconds":229732,"freshness":"STALE","line1":"1 64111U 25110R   26262.46569976  .00020853  00000+0  68163-3 0  9996","line2":"2 64111  53.1567 205.0481 0001513  89.3254 270.7921 15.31711406 75574","mean_motion":15.31711406,"eccentricity":0.0001513,"inclination_deg":53.1567,"raan_deg":205.0481,"arg_perigee_deg":89.3254,"mean_anomaly_deg":270.7921,"bstar":0.00068163,"rev_number":7557,"period_min":94.012487885071,"perigee_km":469.66976479905,"apogee_km":471.74222468926,"semimajor_km":6848.8429947442,"source":"CELESTRAK","updated_at":"2026-09-21T09:00:35.229577Z"}}